Home > Weather > Pécs > Past weeks

Flag for Hungary Weather for the Past 2 Weeks in Pécs, Hungary

Now
48 °F

Passing clouds.


Feels Like: 47 °F
Forecast: 38 / 49 °F
Wind: 3 mph from Southwest

Location: Pecs / Pogany

Current Time: Feb 9, 2016 at 3:19:50 AM

Latest Report: Feb 9, 2016 at 1:00 AM


Visibility: 37 mi

Pressure: 29.95 "Hg

Humidity: 73%

Dew point: 39 °F

Location of PécsLocation

Historic Weather in Pécs — Graph

°F

Pécs Temperature Yesterday

Maximum temperature yesterday: 55 °F (at 3:00 PM)
Minimum temperature yesterday: 38 °F (at 6:00 AM)
Average temperature yesterday: 47 °F

High & Low Weather Summary for the Past Weeks

 TemperatureHumidityPressure
High57 °F (Jan 28, 3:00 PM)98% (Jan 27, 5:00 AM)30.52 "Hg (Jan 27, 5:00 AM)
Low27 °F (Jan 25, 5:00 AM)44% (Feb 6, 2:00 PM)29.93 "Hg (Feb 3, 3:00 PM)
Average43 °F78%30.24 "Hg
* Reported Jan 25 5:00 AM — Feb 9 1:00 AM, Pécs, Weather by CustomWeather, © 2016

Note: Actual official high and low records may vary slightly from our data, if they occured in-between our weather recording intervals... More about our weather records

Advertising

Pécs Weather History for the Previous 24 Hours

 ConditionsComfort  
Time TempWeatherWind HumidityBarometerVisibility
1:00 AM
Tue, Feb 9
48 °FPassing clouds.3 mph73%29.95 "Hg37 mi
11:00 PM
Mon, Feb 8
47 °FOvercast.5 mph74%29.96 "Hg31 mi
10:00 PM48 °FPassing clouds.5 mph73%29.97 "Hg31 mi
9:00 PM49 °FPassing clouds.3 mph72%29.96 "Hg31 mi
8:00 PM50 °FOvercast.2 mph74%29.97 "Hg31 mi
7:00 PM51 °FOvercast.3 mph73%29.98 "Hg31 mi
6:00 PM50 °FOvercast.2 mph76%29.97 "Hg31 mi
5:00 PM51 °FOvercast.3 mph82%29.96 "Hg31 mi
4:00 PM51 °FLight rain. Overcast.2 mph81%29.98 "Hg19 mi
3:00 PM55 °FOvercast.2 mph62%29.98 "Hg37 mi
2:00 PM55 °FOvercast.3 mph58%29.99 "Hg37 mi
1:00 PM55 °FOvercast.3 mph57%30.01 "Hg25 mi
12:00 PM54 °FPartly sunny.3 mph55%30.02 "Hg25 mi
11:00 AM49 °FPartly sunny.2 mph62%30.05 "Hg25 mi
10:00 AM46 °FOvercast.5 mph68%30.05 "Hg25 mi
9:00 AM41 °FOvercast.2 mph77%30.06 "Hg19 mi
8:00 AM39 °FLight rain. Overcast.2 mph81%30.07 "Hg19 mi
7:00 AM39 °FLight rain. Overcast.2 mph76%30.06 "Hg19 mi
6:00 AM38 °FLight rain. Overcast.2 mph74%30.06 "Hg19 mi
5:00 AM40 °FOvercast.1 mph61%30.05 "Hg19 mi
4:00 AM40 °FOvercast.2 mph61%30.05 "Hg19 mi
Weather by CustomWeather, © 2016

See weather overviewHow to use our weather pages